[[{"header":{"parameterUnit":"m.s-1","parameterCategory":1,"la1":30.2991,"la2":30.254,"lo1":-89.0895,"lo2":-89.0444,"dy":0.0017,"dx":0.0017,"nx":28,"ny":28,"refTime":"2025-07-24T09:00:00:Z","depth":0,"parameterNumber":2,"parameterNumberName":"U-component_of_WINDS"},"data":[0,0,0,0,0,0,0,0,0,0,0,0,0,0,0,0,0,0,0,0,0,0,0,0,0,0,0,0,0,0,0,0,0,0,0,0,0,0,0,0,0,0,0,0,0,0,0,0,0,0,0,0,0,0,0,0,0,0,-0.5198,-0.5198,0,-0.5203,-0.5203,-0.5203,-0.5201,-0.5201,-0.5201,-0.52,-0.5206,-0.5207,-0.5207,0,0,0,0,0,0,0,0,0,0,0,0,0,-0.5186,-0.5186,-0.5198,-0.5198,-0.5198,-0.5203,-0.5203,-0.5203,-0.5201,-0.5201,-0.52,-0.52,-0.5206,-0.5207,-0.5207,0,0,0,0,0,0,0,0,0,0,0,0,0,-0.5191,-0.5186,-0.5198,-0.5197,-0.5197,-0.5203,-0.5203,-0.5203,-0.5201,-0.5201,-0.52,-0.52,-0.5206,-0.5207,-0.5207,-0.5214,0,0,-0.5208,-0.5208,0,0,0,0,0,0,0,0,-0.5191,-0.5191,-0.5197,-0.5197,-0.5197,-0.5201,-0.5201,-0.5207,-0.5201,-0.52,-0.52,-0.52,-0.5205,-0.5205,-0.5207,-0.5214,-0.5214,-0.5208,-0.5209,-0.5209,-0.5209,0,0,0,0,0,0,0,-0.519,-0.5191,-0.52,-0.5197,-0.5197,-0.5197,-0.5197,-0.5202,-0.5203,-0.52,-0.5199,-0.52,-0.5205,-0.5206,-0.5207,-0.5214,-0.5208,-0.5209,-0.5209,-0.5209,-0.5228,-0.5228,0,0,0,0,0,0,-0.519,-0.5191,-0.52,-0.52,-0.5193,-0.5197,-0.5198,-0.52,-0.5203,-0.5203,-0.52,-0.52,-0.5206,-0.5206,-0.5207,-0.5216,-0.5209,-0.5209,-0.5209,-0.5228,-0.5228,-0.5228,0,0,0,0,0,0,-0.519,-0.5191,-0.52,-0.5195,-0.5197,-0.5198,-0.52,-0.52,-0.5202,-0.5204,-0.5204,-0.5202,-0.5206,-0.5207,-0.5212,-0.5216,-0.5209,-0.521,-0.5228,-0.5228,-0.5228,-0.5233,0,0,0,0,0,0,-0.5189,-0.5191,-0.5193,-0.5196,-0.5197,-0.5205,-0.52,-0.5201,-0.5203,-0.5202,-0.5205,-0.5205,-0.5206,-0.5212,-0.5213,-0.5216,-0.521,-0.5227,-0.5228,-0.5228,-0.5233,-0.5233,-0.5234,0,0,0,0,0,-0.5189,-0.5194,-0.5193,-0.5194,-0.52,-0.5205,-0.5206,-0.5205,-0.5203,-0.5206,-0.5207,-0.5205,-0.5215,-0.5212,-0.5213,-0.5217,-0.5227,-0.5228,-0.5228,-0.5232,-0.5233,-0.5234,0,0,0,0,0,0,-0.5192,-0.5195,-0.5194,-0.52,-0.5202,-0.5204,-0.5208,-0.5207,-0.521,-0.5209,-0.5209,-0.521,-0.5216,-0.5217,-0.5214,-0.5224,-0.5221,-0.5222,-0.5223,-0.5225,-0.5225,-0.5225,-0.521,0,0,0,0,0,-0.5194,-0.5198,-0.5199,-0.5205,-0.5206,-0.5207,-0.5209,-0.5208,-0.5211,-0.5212,-0.5213,-0.5216,-0.522,-0.5222,-0.5225,-0.5232,-0.5233,-0.5236,-0.5237,-0.5237,-0.5238,-0.5243,-0.5244,-0.523,-0.523,-0.523,0,0,-0.5197,-0.5199,-0.5201,-0.5205,-0.5207,-0.5211,-0.5207,-0.5212,-0.5215,-0.5212,-0.5218,-0.5219,-0.5222,-0.5229,-0.5232,-0.523,-0.5242,-0.5238,-0.5239,-0.5239,-0.5243,-0.5245,-0.5246,-0.5231,-0.523,-0.523,0,0,-0.5205,-0.5207,-0.5212,-0.5213,-0.5216,-0.5216,-0.5218,-0.522,-0.5221,-0.5226,-0.5225,-0.5228,-0.5234,-0.5237,-0.5239,-0.5247,-0.5246,-0.5248,-0.5253,-0.5257,-0.5258,-0.5259,-0.5263,-0.5264,-0.5249,-0.5249,-0.5249,0,-0.5209,-0.5215,-0.5214,-0.5219,-0.5221,-0.5219,-0.5224,-0.5226,-0.5229,-0.5231,-0.5229,-0.5237,-0.5238,-0.5246,-0.5248,-0.5249,-0.5251,-0.5248,-0.5258,-0.5259,-0.526,-0.5264,-0.5265,-0.5249,-0.5249,-0.5249,-0.5249,0,-0.522,-0.5224,-0.5227,-0.5231,-0.5233,-0.5238,-0.5238,-0.5241,-0.524,-0.5241,-0.5247,-0.5249,-0.5253,-0.5254,-0.5254,-0.5262,-0.526,-0.5258,-0.5255,-0.5262,-0.5265,-0.5266,-0.525,-0.525,-0.525,-0.525,0,0,-0.5231,-0.5234,-0.5235,-0.5237,-0.524,-0.5243,-0.5248,-0.5251,-0.5254,-0.5256,-0.5261,-0.5266,-0.5264,-0.5266,-0.5266,-0.5269,-0.5277,-0.5267,-0.5267,-0.5269,-0.5286,-0.5288,-0.529,-0.5276,-0.5276,-0.5276,-0.5286,0,-0.524,-0.5248,-0.5247,-0.5255,-0.5259,-0.5257,-0.5261,-0.5263,-0.5264,-0.5268,-0.5268,-0.5272,-0.5269,-0.5271,-0.5274,-0.5275,-0.528,-0.5274,-0.528,-0.528,-0.528,-0.5291,-0.5294,-0.5303,-0.5287,-0.5287,-0.5288,0,-0.5251,-0.5254,-0.5262,-0.5265,-0.5266,-0.527,-0.5274,-0.5277,-0.5279,-0.5279,-0.5282,-0.5281,-0.5286,-0.5282,-0.5289,-0.5285,-0.5287,-0.5288,-0.5288,-0.5289,-0.5285,-0.5294,-0.5306,-0.5308,-0.529,-0.5289,-0.5289,0,-0.526,-0.5265,-0.5271,-0.5273,-0.5275,-0.5278,-0.5279,-0.5281,-0.5284,-0.5287,-0.5288,-0.5292,-0.5294,-0.5297,-0.5297,-0.5294,-0.5304,-0.53,-0.5305,-0.5305,-0.5308,-0.5308,-0.5322,-0.5308,-0.5308,-0.5308,-0.5308,0,-0.527,-0.5275,-0.5275,-0.5279,-0.5284,-0.5284,-0.529,-0.5291,-0.5292,-0.5296,-0.5294,-0.5298,-0.5298,-0.5302,-0.5302,-0.5308,-0.5309,-0.5309,-0.5309,-0.531,-0.531,-0.5312,-0.5312,-0.5308,-0.5308,-0.5308,-0.5308,0,-0.528,-0.528,-0.5287,-0.5288,-0.5289,-0.5293,-0.5295,-0.5299,-0.5299,-0.5304,-0.5305,-0.5306,-0.531,-0.531,-0.5315,-0.5315,-0.5323,-0.5322,-0.5322,-0.5322,-0.5328,-0.5328,-0.5344,-0.5346,-0.533,-0.5331,-0.5331,0,-0.5288,-0.5292,-0.5294,-0.5296,-0.5298,-0.5301,-0.5304,-0.5303,-0.5306,-0.5309,-0.5312,-0.5316,-0.532,-0.5327,-0.5328,-0.5332,-0.5331,-0.5337,-0.5332,-0.5332,-0.5332,-0.5332,-0.5333,-0.5338,-0.5338,-0.5338,-0.5338,0,-0.53,-0.53,-0.5303,-0.5307,-0.531,-0.5313,-0.5315,-0.5317,-0.5317,-0.532,-0.5324,-0.5327,-0.5332,-0.5336,-0.534,-0.5341,-0.534,-0.534,-0.5341,-0.5342,-0.5343,-0.5343,-0.5326,-0.534,-0.5339,-0.5339,-0.5339,-0.5339,-0.531,-0.5313,-0.5316,-0.532,-0.5321,-0.5324,-0.5327,-0.5328,-0.5332,-0.5336,-0.5335,-0.534,-0.5342,-0.5347,-0.5349,-0.5353,-0.5351,-0.5353,-0.5354,-0.5355,-0.5356,-0.5341,-0.5354,-0.5354,-0.5354,-0.5354,-0.5354,0,-0.5323,-0.5324,-0.5328,-0.5331,-0.5335,-0.5332,-0.5335,-0.5338,-0.5343,-0.5345,-0.5348,-0.5353,-0.5358,-0.5359,-0.5363,-0.5366,-0.5366,-0.5367,-0.5367,-0.5368,-0.5357,-0.5355,-0.5368,-0.5368,-0.5368,-0.5368,-0.5368,-0.5368,-0.5331,-0.5337,-0.5337,-0.5344,-0.5345,-0.535,-0.5352,-0.5354,-0.5356,-0.5362,-0.5365,-0.5366,-0.5368,-0.5372,-0.5376,-0.5376,-0.5378,-0.538,-0.538,-0.537,-0.5369,-0.5367,-0.5366,-0.538,-0.538,-0.5391,-0.5391,-0.5391]},{"header":{"parameterUnit":"m.s-1","parameterCategory":1,"la1":30.2991,"la2":30.254,"lo1":-89.0895,"lo2":-89.0444,"dy":0.0017,"dx":0.0017,"nx":28,"ny":28,"refTime":"2025-07-24T09:00:00:Z","depth":0,"parameterNumber":3,"parameterNumberName":"V-component_of_WINDS"},"data":[0,0,0,0,0,0,0,0,0,0,0,0,0,0,0,0,0,0,0,0,0,0,0,0,0,0,0,0,0,0,0,0,0,0,0,0,0,0,0,0,0,0,0,0,0,0,0,0,0,0,0,0,0,0,0,0,0,0,5.1139,5.114,0,5.1224,5.1225,5.1226,5.1161,5.1159,5.1156,5.1153,5.1237,5.1242,5.1247,0,0,0,0,0,0,0,0,0,0,0,0,0,5.0914,5.0919,5.1139,5.114,5.1141,5.1224,5.1225,5.1226,5.1162,5.1159,5.1155,5.1152,5.1236,5.1241,5.1247,0,0,0,0,0,0,0,0,0,0,0,0,0,5.1007,5.092,5.1139,5.1119,5.1118,5.1224,5.1225,5.1227,5.1163,5.1158,5.1154,5.115,5.1234,5.1241,5.1248,5.1377,0,0,5.127,5.1273,0,0,0,0,0,0,0,0,5.1002,5.1015,5.1121,5.112,5.112,5.1178,5.1177,5.1277,5.1164,5.1146,5.1153,5.1148,5.1221,5.1229,5.1254,5.138,5.1384,5.1271,5.1275,5.1278,5.128,0,0,0,0,0,0,0,5.0996,5.1011,5.1172,5.1122,5.1122,5.1104,5.1112,5.1195,5.1205,5.1147,5.1142,5.1154,5.1219,5.1247,5.1255,5.1385,5.127,5.1277,5.1281,5.1284,5.1618,5.1622,0,0,0,0,0,0,5.0992,5.1006,5.117,5.1175,5.1049,5.1111,5.1121,5.1163,5.1204,5.1207,5.1157,5.115,5.1237,5.1247,5.1258,5.1409,5.1278,5.1285,5.1289,5.1613,5.1619,5.1624,0,0,0,0,0,0,5.0987,5.1007,5.1166,5.109,5.1108,5.112,5.1168,5.1167,5.1195,5.1212,5.1213,5.1184,5.1234,5.1248,5.1347,5.1411,5.1288,5.1295,5.1608,5.1615,5.1621,5.1713,0,0,0,0,0,0,5.0981,5.1006,5.1056,5.1091,5.1113,5.1256,5.1172,5.1172,5.1208,5.12,5.1237,5.124,5.1231,5.1336,5.1354,5.1418,5.13,5.1602,5.1611,5.1619,5.1704,5.1722,5.1737,0,0,0,0,0,5.0973,5.1079,5.1059,5.1079,5.1176,5.126,5.1272,5.1261,5.1213,5.1263,5.1274,5.1238,5.1401,5.1347,5.1367,5.1434,5.1598,5.1609,5.1618,5.1697,5.1718,5.1737,0,0,0,0,0,0,5.105,5.1083,5.1062,5.1182,5.1219,5.1249,5.1311,5.1285,5.1335,5.1326,5.1309,5.1318,5.1422,5.1438,5.1377,5.1559,5.1492,5.1506,5.1544,5.1565,5.1581,5.1574,5.1307,0,0,0,0,0,5.1081,5.1148,5.1172,5.1276,5.1295,5.13,5.1336,5.1325,5.1362,5.1376,5.1394,5.143,5.1489,5.1528,5.1584,5.1706,5.1712,5.1762,5.1778,5.1792,5.1804,5.1867,5.1888,5.1657,5.1657,5.1657,0,0,5.1146,5.1172,5.1215,5.1292,5.1319,5.1385,5.1314,5.1388,5.1437,5.1387,5.1482,5.1496,5.1535,5.1645,5.1695,5.1662,5.1869,5.1805,5.1815,5.182,5.1879,5.1901,5.1921,5.1664,5.1663,5.1661,0,0,5.1297,5.1325,5.1413,5.1441,5.1483,5.1485,5.1507,5.154,5.1548,5.1643,5.1606,5.1663,5.1766,5.1794,5.1822,5.1981,5.1949,5.2,5.2085,5.2146,5.2165,5.2181,5.2235,5.2255,5.2012,5.2012,5.2012,0,5.1372,5.1473,5.1461,5.1538,5.1571,5.153,5.1617,5.1645,5.1702,5.1725,5.1688,5.1814,5.1837,5.1952,5.1991,5.2016,5.2037,5.1995,5.2163,5.2179,5.2194,5.2245,5.2266,5.2018,5.2017,5.2017,5.2016,0,5.1561,5.1631,5.1697,5.1754,5.1795,5.1876,5.1875,5.1917,5.1902,5.1907,5.2002,5.2029,5.2087,5.2114,5.21,5.2227,5.2204,5.2166,5.2097,5.2222,5.227,5.2289,5.2026,5.2024,5.2022,5.2021,0,0,5.1764,5.1812,5.1836,5.186,5.1902,5.1955,5.2033,5.2091,5.2127,5.2167,5.2231,5.2318,5.2281,5.2313,5.2301,5.2355,5.2476,5.2309,5.231,5.2337,5.2614,5.2641,5.2664,5.2456,5.246,5.2463,5.2609,0,5.1915,5.2053,5.2043,5.2172,5.2235,5.2196,5.2264,5.2296,5.2303,5.2355,5.2362,5.2423,5.2372,5.239,5.2442,5.2451,5.2531,5.244,5.2512,5.2515,5.2502,5.269,5.272,5.2857,5.2628,5.2632,5.2634,0,5.2111,5.2158,5.2293,5.2323,5.2349,5.2411,5.2461,5.2513,5.2547,5.2548,5.2583,5.2561,5.2638,5.2569,5.2672,5.2611,5.264,5.2648,5.2653,5.2658,5.2581,5.2697,5.2901,5.2921,5.2664,5.2661,5.2659,0,5.2242,5.2339,5.2432,5.2454,5.2492,5.2535,5.2553,5.2583,5.2618,5.2662,5.2683,5.2736,5.2764,5.2803,5.2796,5.2747,5.29,5.2832,5.2901,5.2901,5.2934,5.2931,5.3142,5.2956,5.2956,5.2955,5.2955,0,5.2411,5.2494,5.2491,5.2548,5.2639,5.2626,5.2716,5.2729,5.2756,5.2812,5.2782,5.2835,5.2823,5.2876,5.287,5.2955,5.2968,5.2969,5.2966,5.2971,5.2971,5.2988,5.2978,5.2961,5.296,5.2959,5.2958,0,5.2572,5.2574,5.2671,5.2699,5.2708,5.2774,5.2796,5.2849,5.2852,5.2924,5.294,5.2946,5.3006,5.3003,5.3071,5.3067,5.3171,5.3158,5.3159,5.3156,5.3224,5.3217,5.3452,5.3481,5.3278,5.328,5.3282,0,5.2679,5.2742,5.2776,5.2812,5.2833,5.2892,5.2926,5.2915,5.2952,5.2995,5.3042,5.3099,5.3144,5.3242,5.325,5.3301,5.3288,5.3367,5.3295,5.3297,5.3286,5.3282,5.3287,5.338,5.3383,5.3385,5.3386,0,5.2868,5.2865,5.2916,5.2968,5.301,5.305,5.3087,5.3118,5.311,5.3153,5.3214,5.3249,5.3318,5.3374,5.3423,5.3438,5.3411,5.3409,5.3427,5.3431,5.3429,5.3428,5.3195,5.3403,5.3401,5.34,5.3399,5.3399,5.3003,5.3056,5.3088,5.3146,5.3172,5.3206,5.3256,5.3266,5.3317,5.3372,5.3363,5.343,5.346,5.3522,5.3543,5.3594,5.3566,5.3593,5.3599,5.3606,5.3612,5.3422,5.3603,5.3603,5.3602,5.3602,5.3602,0,5.3188,5.3206,5.326,5.3311,5.3356,5.3327,5.3365,5.3404,5.3464,5.3495,5.354,5.3608,5.3662,5.3675,5.3726,5.3765,5.3753,5.3778,5.3774,5.3778,5.3636,5.3614,5.3787,5.3787,5.3787,5.3787,5.3787,5.3787,5.3289,5.3377,5.3377,5.3476,5.3493,5.356,5.3584,5.3614,5.3638,5.3716,5.3761,5.3769,5.3792,5.3844,5.3891,5.3893,5.3913,5.3943,5.394,5.3807,5.3788,5.377,5.3749,5.3948,5.3948,5.4077,5.4078,5.4079]}]]